Airfield :
LOGIN :

Register | Disclaimer

   EN    FR    IT 

 










Legend :    VFR   Marginal VFR   IFR   Intensive IFR   Very Intensive IFR
Visi :
Ceiling :
>= 8 km
>= 3000ft
5 to 8 km
1000 to 3000 ft
1500m to 5 km
500 to 1000 ft
800 to 1500m
200 to 500 ft
< 800m
< 200 ft
Symbols :   Thunderstorms  Fog  Heavy snow  Heavy precipitations  Wind > 20 kt
SIGMETs :     Misc.  Thunderstorms  Icing  Turbulence  Mountain Waves  Volcanic Ashes






- Airport Elevation : 352 ft
- IATA code : ARW


LRAR - Arad International

CURRENT METAR :
  • 090500Z 13007KT CAVOK 09/03 Q1024

EXPIRED METARs :
  • 090430Z 12006KT CAVOK 07/03 Q1024
  • 090400Z 14005KT CAVOK 05/02 Q1024
  • 090330Z 14008KT CAVOK 05/02 Q1024
  • 090300Z 13005KT CAVOK 04/02 Q1024
  • 090230Z 13004KT CAVOK 04/02 Q1024

TAF TAF LRAR
Valid from the 09 at 03:00 until the 09 at 12:00 UTC


090200Z 0903/0912 14006KT CAVOK



MET'MAP, your aeronautical weather chart ! - Copyright ORBIFLY December 2007 - Disclaimer

ORBIFLY MET'MAP TEAM :

Programming & Development : Alexandra Zaïnal
Concept & original design : Baudouin d'Aumeries
Assistance for programming : Marc-Olivier Méhu
Technical & hardware support : Manuel Goepfert

Contact : metmap@orbifly.com




SOURCES & CREDITS :

   NOAA